Location: Rocktram
(38.2574°N, 122.2805°W)
Time: 01:46:34
(UTC+00:00)

Cosmos 1953 - Pass Details

Date: 30 March 2020
Orbit: 540 x 557 km, 82.5° (Epoch: 27 May)

Event Time Altitude Azimuth Distance (km) Brightness Sun altitude
Exits shadow 04:26:14 75° 23° (NNE) 563 2.2 -22.7°
Drops below altitude 10° 04:29:55 10° 8° (N) 1,811 5.1 -23.4°
Sets 04:32:05 0° 8° (N) 2,709 6.1 -23.7°
